TimeMST,TemperatureF,Dew PointF,Humidity,Sea Level PressureIn,VisibilityMPH,Wind Direction,Wind SpeedMPH,Gust SpeedMPH,PrecipitationIn,Events,Conditions,WindDirDegrees,DateUTC
12:56 AM,-14.1,-20.0,75,30.09,-9999.0,Calm,Calm,-,N/A,,Unknown,0,2012-12-19 07:56:00
1:56 AM,-16.1,-20.9,79,30.11,-9999.0,Calm,Calm,-,N/A,,Unknown,0,2012-12-19 08:56:00
2:56 AM,-16.1,-20.9,79,30.13,-9999.0,WNW,3.5,-,N/A,,Unknown,300,2012-12-19 09:56:00
3:56 AM,-14.1,-18.0,82,30.14,-9999.0,NW,3.5,-,N/A,,Unknown,310,2012-12-19 10:56:00
4:56 AM,-17.0,-23.1,74,30.20,-9999.0,Calm,Calm,-,N/A,,Unknown,0,2012-12-19 11:56:00
5:56 AM,-17.0,-22.0,78,30.26,-9999.0,Calm,Calm,-,N/A,,Unknown,0,2012-12-19 12:56:00
6:56 AM,-18.0,-23.1,78,30.32,-9999.0,NW,3.5,-,N/A,,Unknown,320,2012-12-19 13:56:00
7:56 AM,-18.9,-24.0,78,30.37,-9999.0,NW,3.5,-,N/A,,Unknown,310,2012-12-19 14:56:00
8:56 AM,-16.1,-20.9,79,30.40,-9999.0,Calm,Calm,-,N/A,,Unknown,0,2012-12-19 15:56:00
9:56 AM,-9.0,-11.9,87,30.40,-9999.0,Calm,Calm,-,N/A,,Unknown,0,2012-12-19 16:56:00
10:56 AM,1.9,-0.9,88,30.36,-9999.0,Variable,3.5,-,N/A,,Unknown,0,2012-12-19 17:56:00
11:56 AM,6.1,-0.0,76,30.34,-9999.0,Variable,4.6,-,N/A,,Unknown,0,2012-12-19 18:56:00
12:56 PM,10.0,-0.0,64,30.32,-9999.0,Variable,5.8,-,N/A,,Unknown,0,2012-12-19 19:56:00
1:56 PM,10.0,-2.9,56,30.34,-9999.0,Variable,6.9,-,N/A,,Unknown,0,2012-12-19 20:56:00
2:56 PM,9.0,-2.0,61,30.39,-9999.0,Variable,6.9,-,N/A,,Unknown,0,2012-12-19 21:56:00
3:56 PM,5.0,-2.9,70,30.45,-9999.0,Variable,4.6,-,N/A,,Unknown,0,2012-12-19 22:56:00
4:56 PM,3.0,-2.9,76,30.50,-9999.0,Calm,Calm,-,N/A,,Unknown,0,2012-12-19 23:56:00
5:56 PM,1.9,-4.0,76,30.55,-9999.0,Calm,Calm,-,N/A,,Unknown,0,2012-12-20 00:56:00
6:56 PM,5.0,-2.0,73,30.56,-9999.0,Variable,3.5,-,N/A,,Unknown,0,2012-12-20 01:56:00
7:56 PM,5.0,-2.0,73,30.58,-9999.0,Variable,3.5,-,N/A,,Unknown,0,2012-12-20 02:56:00
8:56 PM,5.0,-0.9,76,30.59,-9999.0,Calm,Calm,-,N/A,,Unknown,0,2012-12-20 03:56:00
9:56 PM,5.0,-0.9,76,30.56,-9999.0,Calm,Calm,-,N/A,,Unknown,0,2012-12-20 04:56:00
10:56 PM,7.0,1.0,77,30.48,-9999.0,Variable,3.5,-,N/A,,Unknown,0,2012-12-20 05:56:00
11:56 PM,7.0,1.0,77,30.47,-9999.0,Variable,4.6,-,N/A,,Unknown,0,2012-12-20 06:56:00